Погода в Шубра-эль-Хейме

Египет     30°12′10″N   31°23′47″E
темп.,
°C
ветер,
м/с
пор.,
м/с
влажн.,
%
обл.,
%
осадки,
мм/ч
давл.,
гПа
погр.,
м
18 мая, вт
вт1823:00+20ссв35640 0.0 1015315
02:00+18ссв34740 0.0 1013136
05:00+17св33800 0.0 101464
08:00+22св46550 0.0 1015635
11:00+29св55290 0.0 10131246
14:00+34ссв66180 0.0 10111941
17:00+32св109210 0.0 10111231
20:00+24св710450 0.0 1014393
19 мая, ср
ср1923:00+21св47630 0.0 1014232
02:00+20св35720 0.0 101397
05:00+19св34780 0.0 101379
08:00+24св57520 0.0 1014589
11:00+31св67250 0.0 10131293
14:00+35св98170 0.0 10101867
17:00+31св99220 0.0 10101266
20:00+25св710450 0.0 1012318
20 мая, чт
чт2023:00+22св59670 0.0 1012248
02:00+20св47780 0.0 1011160
05:00+19св34840 0.0 101273
08:00+25св57450 0.0 1012587
11:00+33ссв67200 0.0 10111352
14:00+37св87130 0.0 10082074
17:00+34св98150 0.0 10081649
20:00+26св610311 0.0 1011300
21 мая, пт
пт2123:00+22св35530 0.0 1012117
02:00+20ссв22650 0.0 101129
05:00+19с12690 0.0 101118
08:00+24ссв23420 0.0 1012400
11:00+32с34170 0.0 10101107
14:00+37с46130 0.0 10082612
17:00+34ссз1110200 0.0 10081275
20:00+26с610390 0.0 1012417
22 мая, сб
сб2223:00+21ссз48640 0.0 1013380
02:00+20ссз48750 0.0 1013376
05:00+18с36800 0.0 1014191
08:00+22с56520 0.0 10151001
11:00+28с55210 0.0 10141698
14:00+31ссз76160 0.0 10122385
17:00+28ссз108240 0.0 10131988
20:00+21с710510 0.0 1016565